EW9528 Weather Reports


Display with metric or nautical units.
time (UTC)temp
F
wind
direction
speed
MPH
gust
MPH
rain 1hr
in
rain 24hr
in
rain mn
in
humidity
%
barometer
mb
20260502194112 68 157 3.0 5.0 0.00 0.00 0.00 17 1022.7
20260502194013 68 164 4.0 6.0 0.00 0.00 0.00 17 1022.7
20260502193012 67 152 3.0 4.0 0.00 0.00 0.00 18 1022.8
20260502192111 67 157 3.0 5.0 0.00 0.00 0.00 19 1023.0
20260502191127 66 164 2.0 5.0 0.00 0.00 0.00 19 1023.0
20260502190111 66 122 5.0 7.0 0.00 0.00 0.00 20 1023.2
20260502185114 66 159 5.0 6.0 0.00 0.00 0.00 21 1023.5
20260502184113 65 148 4.0 6.0 0.00 0.00 0.00 23 1023.7
20260502183112 63 180 3.0 4.0 0.00 0.00 0.00 24 1023.9
20260502182130 63 163 2.0 5.0 0.00 0.00 0.00 25 1024.0
20260502180127 62 135 2.0 3.0 0.00 0.00 0.00 25 1024.2
20260502170411 61 157 4.0 5.0 0.00 0.00 0.00 31 1024.5
20260502170312 61 161 2.0 6.0 0.00 0.00 0.00 32 1024.5
20260502163512 57 136 1.0 3.0 0.00 0.00 0.00 37 1024.7
20260502162513 56 135 2.0 3.0 0.00 0.00 0.00 39 1024.8
20260502161513 55 201 0.0 1.0 0.00 0.00 0.00 40 1024.8
20260502160528 55 161 5.0 6.0 0.00 0.00 0.00 40 1024.8
20260502151629 53 155 2.0 5.0 0.00 0.00 0.00 45 1024.8
20260502150630 53 146 4.0 6.0 0.00 0.00 0.00 46 1024.9
20260502123813 39 315 0.0 0.0 0.00 0.00 0.00 64 1023.4
20260502121830 39 315 0.0 0.0 0.00 0.00 0.00 63 1023.4
20260502120913 39 315 0.0 0.0 0.00 0.00 0.00 63 1023.4
20260502115914 38 315 0.0 2.0 0.00 0.00 0.00 61 1023.3
20260502115011 39 315 0.0 0.0 0.00 0.00 0.00 59 1023.3
20260502113127 40 315 0.0 0.0 0.00 0.00 0.00 57 1023.2
20260502112113 41 315 0.0 0.0 0.00 0.00 0.00 55 1023.3
20260502111212 41 315 0.0 0.0 0.00 0.00 0.00 54 1023.5
20260502110311 41 315 0.0 2.0 0.00 0.00 0.00 54 1023.4
20260502104412 42 315 1.0 3.0 0.00 0.00 0.00 51 1023.4
20260502103412 42 315 0.0 0.0 0.00 0.00 0.00 52 1023.4
20260502102413 42 315 0.0 0.0 0.00 0.00 0.00 50 1023.3
20260502101414 43 315 0.0 0.0 0.00 0.00 0.00 49 1023.4
20260502100511 44 315 0.0 0.0 0.00 0.00 0.00 47 1023.5
20260502091512 45 337 0.0 1.0 0.00 0.00 0.00 48 1023.2
20260502070813 47 292 0.0 0.0 0.00 0.00 0.00 41 1023.4
20260502065813 48 292 0.0 0.0 0.00 0.00 0.00 40 1023.4
20260502064811 50 292 0.0 0.0 0.00 0.00 0.00 38 1023.4
20260502064731 50 292 0.0 0.0 0.00 0.00 0.00 38 1023.4
20260502063712 50 292 1.0 1.0 0.00 0.00 0.00 37 1023.2
20260502062714 51 360 0.0 0.0 0.00 0.00 0.00 35 1023.4
20260502061713 52 37 0.0 1.0 0.00 0.00 0.00 33 1023.3
20260502060713 53 45 2.0 2.0 0.00 0.00 0.00 31 1023.3
20260502060615 53 45 1.0 3.0 0.00 0.00 0.00 31 1023.3
20260502055621 55 45 3.0 5.0 0.00 0.00 0.00 30 1023.1
20260502054623 53 47 3.0 5.0 0.00 0.00 0.00 32 1023.0
20260502053622 54 45 2.0 4.0 0.00 0.00 0.00 32 1023.0
20260502051622 54 295 2.0 4.0 0.00 0.00 0.00 32 1022.8
20260502050623 54 337 0.0 0.0 0.00 0.00 0.00 32 1022.8
20260502045722 55 337 2.0 3.0 0.00 0.00 0.00 32 1022.8
20260502044722 55 356 1.0 3.0 0.00 0.00 0.00 32 1022.8
20260502042738 55 20 4.0 8.0 0.00 0.00 0.00 31 1022.5
20260502041723 56 15 2.0 4.0 0.00 0.00 0.00 30 1022.4
20260502040723 56 17 2.0 5.0 0.00 0.00 0.00 29 1022.4
20260502035739 56 357 3.0 6.0 0.00 0.00 0.00 30 1022.3
20260502034722 56 357 3.0 5.0 0.00 0.00 0.00 30 1022.1
20260502032823 57 332 2.0 5.0 0.00 0.00 0.00 29 1021.9
20260502031823 57 345 1.0 5.0 0.00 0.00 0.00 29 1021.8
20260502030823 57 356 2.0 6.0 0.00 0.00 0.00 29 1021.6
20260502024822 58 359 5.0 8.0 0.00 0.00 0.00 28 1021.4
20260502024723 58 359 5.0 12.0 0.00 0.00 0.00 28 1021.4
20260502023722 58 11 5.0 8.0 0.00 0.00 0.00 28 1021.3
20260502023623 58 20 7.0 10.0 0.00 0.00 0.00 28 1021.3
20260502022723 59 8 4.0 6.0 0.00 0.00 0.00 28 1021.1
20260502021723 60 11 4.0 9.0 0.00 0.00 0.00 27 1021.1
20260502020725 60 10 5.0 8.0 0.00 0.00 0.00 27 1021.1
20260502015822 61 15 4.0 7.0 0.00 0.00 0.00 26 1021.2
20260502014823 62 4 6.0 11.0 0.00 0.00 0.00 25 1021.1
20260502012823 63 7 8.0 11.0 0.00 0.00 0.00 24 1020.8
20260502011824 64 18 9.0 12.0 0.00 0.00 0.00 23 1020.8
20260502005824 64 20 8.0 15.0 0.00 0.00 0.00 23 1020.8
20260502004823 64 10 6.0 11.0 0.00 0.00 0.00 23 1020.8
20260502003824 65 21 6.0 11.0 0.00 0.00 0.00 23 1020.8
20260502002823 65 7 6.0 13.0 0.00 0.00 0.00 23 1020.9
20260502000924 65 18 8.0 11.0 0.00 0.00 0.00 22 1020.8
20260501235923 65 22 6.0 10.0 0.00 0.00 0.00 21 1020.8
20260501234923 66 22 10.0 20.0 0.00 0.00 0.00 21 1020.8
20260501233937 66 9 7.0 12.0 0.00 0.00 0.00 21 1020.8
20260501232924 66 14 6.0 14.0 0.00 0.00 0.00 21 1020.8
20260501230924 67 30 9.0 15.0 0.00 0.00 0.00 21 1020.8
20260501225121 67 14 8.0 14.0 0.00 0.00 0.00 21 1020.9
20260501223221 68 26 4.0 8.0 0.00 0.00 0.00 19 1021.0
20260501221222 68 180 0.0 2.0 0.00 0.00 0.00 19 1021.3
20260501220321 68 45 2.0 3.0 0.00 0.00 0.00 19 1021.4
20260501215324 67 3 4.0 5.0 0.00 0.00 0.00 19 1021.5
20260501214422 67 56 5.0 7.0 0.00 0.00 0.00 19 1021.7
20260501213521 67 27 4.0 6.0 0.00 0.00 0.00 18 1021.8
20260501211522 67 337 1.0 5.0 0.00 0.00 0.00 17 1022.0
20260501210422 66 319 0.0 3.0 0.00 0.00 0.00 18 1022.0
20260501205521 66 296 2.0 7.0 0.00 0.00 0.00 18 1022.1
20260501204621 66 212 3.0 5.0 0.00 0.00 0.00 18 1022.2
20260501204521 66 143 0.0 2.0 0.00 0.00 0.00 18 1022.2
20260501203537 66 157 1.0 5.0 0.00 0.00 0.00 19 1022.1
20260501202623 65 115 2.0 4.0 0.00 0.00 0.00 18 1022.2
20260501201623 66 68 5.0 7.0 0.00 0.00 0.00 18 1022.3
20260501201541 65 38 5.0 8.0 0.00 0.00 0.00 19 1022.4
20260501200524 64 360 2.0 4.0 0.00 0.00 0.00 20 1022.4